{"data":{"norad_id":66568,"intl_designator":"2025-268M","name":"STARLINK-35803","alt_names":[],"object_type":"PAYLOAD","status":"ACTIVE","operator":null,"country":"US","launch_date":"2025-11-21","launch_site_code":"AFETR","launch_vehicle":null,"mission":null,"orbit_class":"UNKNOWN","rcs_meters":null,"size_class":null,"mass_kg":null,"dimensions":null,"purposes":["comms"],"wikipedia_slug":null,"has_3d_model":false,"image_url":null,"decayed_at":null,"tle_current":{"epoch":"2026-05-25T01:25:34.238784Z","epoch_age_seconds":69951,"freshness":"FRESH","line1":"1 66568U 25268M   26145.05942406  .00017266  00000+0  63558-3 0  9993","line2":"2 66568  42.9992 275.4082 0001716 289.0234  71.0431 15.27573739 29645","mean_motion":15.27573739,"eccentricity":0.0001716,"inclination_deg":42.9992,"raan_deg":275.4082,"arg_perigee_deg":289.0234,"mean_anomaly_deg":71.0431,"bstar":0.00063558,"rev_number":2964,"period_min":94.267135080672,"perigee_km":481.89046103887,"apogee_km":484.24522654126,"semimajor_km":6861.2048437901,"source":"CELESTRAK","updated_at":"2026-05-25T13:38:21.280819Z"}}}